• In Belarus
  • List of Countries
  • For 7 days
  • Water Temperature
  • Weather Map
  • Weather Widgets
  • user-avatar
    Login

    Hourly Weather Elbasan

    Today, 6 December, Friday

    Time Temperature Precipitation Wind Pressure Humidity
    00:00 +10°C° 0 mm 1 mps 742 mmHg 72%
    01:00 +10°C° 0 mm 1 mps 742 mmHg 72%
    02:00 +10°C° 0 mm 1 mps 742 mmHg 73%
    03:00 +11°C° 0 mm 1 mps 742 mmHg 73%
    04:00 +11°C° 0 mm 1 mps 741 mmHg 73%
    05:00 +11°C° 0 mm 1 mps 741 mmHg 74%
    06:00 +11°C° 0 mm 1 mps 742 mmHg 76%
    07:00 +11°C° 0 mm 1 mps 742 mmHg 77%
    08:00 +11°C° 0 mm 0 mps 742 mmHg 74%
    09:00 +12°C° 0 mm 0 mps 742 mmHg 71%
    10:00 +14°C° 0 mm 0 mps 742 mmHg 69%
    11:00 +15°C° 0 mm 1 mps 741 mmHg 69%
    12:00 +15°C° 0 mm 1 mps 741 mmHg 70%
    13:00 +15°C° 0 mm 1 mps 740 mmHg 71%
    14:00 +15°C° 0 mm 1 mps 740 mmHg 74%
    15:00 +14°C° 0 mm 1 mps 740 mmHg 77%
    16:00 +13°C° 0 mm 0 mps 739 mmHg 80%
    17:00 +13°C° 0.1 mm 0 mps 739 mmHg 82%
    18:00 +14°C° 0.1 mm 1 mps 740 mmHg 84%
    19:00 +14°C° 0.1 mm 1 mps 740 mmHg 85%
    20:00 +13°C° 1 mm 1 mps 739 mmHg 88%
    21:00 +13°C° 1 mm 1 mps 739 mmHg 91%
    22:00 +13°C° 1 mm 1 mps 739 mmHg 94%
    23:00 +13°C° 2.4 mm 1 mps 739 mmHg 95%

    Tomorrow, 7 December, Saturday

    Time Temperature Precipitation Wind Pressure Humidity
    00:00 +13°C° 2.4 mm 1 mps 738 mmHg 95%
    01:00 +13°C° 2.4 mm 1 mps 738 mmHg 96%
    02:00 +13°C° 1.6 mm 1 mps 737 mmHg 95%
    03:00 +13°C° 1.6 mm 1 mps 737 mmHg 94%
    04:00 +13°C° 1.6 mm 1 mps 737 mmHg 92%
    05:00 +13°C° 1.3 mm 1 mps 737 mmHg 93%
    06:00 +13°C° 1.3 mm 1 mps 737 mmHg 93%
    07:00 +13°C° 1.3 mm 1 mps 737 mmHg 94%
    08:00 +13°C° 1 mm 1 mps 737 mmHg 93%
    09:00 +14°C° 1 mm 1 mps 737 mmHg 92%
    10:00 +14°C° 1 mm 2 mps 737 mmHg 91%
    11:00 +14°C° 0.3 mm 2 mps 736 mmHg 87%
    12:00 +15°C° 0.3 mm 2 mps 736 mmHg 82%
    13:00 +15°C° 0.3 mm 2 mps 736 mmHg 78%
    14:00 +14°C° 0.4 mm 2 mps 736 mmHg 82%
    15:00 +14°C° 0.4 mm 1 mps 736 mmHg 85%
    16:00 +13°C° 0.4 mm 1 mps 735 mmHg 89%
    17:00 +12°C° 0.2 mm 1 mps 736 mmHg 90%
    18:00 +12°C° 0.2 mm 1 mps 736 mmHg 91%
    19:00 +12°C° 0.2 mm 1 mps 736 mmHg 92%
    20:00 +11°C° 0 mm 1 mps 736 mmHg 92%
    21:00 +11°C° 0 mm 1 mps 736 mmHg 92%
    22:00 +11°C° 0 mm 1 mps 736 mmHg 91%
    23:00 +11°C° 0.1 mm 1 mps 736 mmHg 91%

    Day after tomorrow, 8 December, Sunday

    Time Temperature Precipitation Wind Pressure Humidity
    00:00 +11°C° 0.1 mm 1 mps 736 mmHg 92%
    01:00 +11°C° 0.1 mm 1 mps 736 mmHg 92%
    02:00 +11°C° 0.1 mm 1 mps 736 mmHg 91%
    03:00 +11°C° 0.1 mm 1 mps 736 mmHg 91%
    04:00 +11°C° 0.1 mm 1 mps 735 mmHg 90%
    05:00 +11°C° 0 mm 1 mps 736 mmHg 90%
    06:00 +10°C° 0 mm 1 mps 736 mmHg 89%
    07:00 +10°C° 0 mm 1 mps 736 mmHg 89%
    08:00 +12°C° 0 mm 1 mps 736 mmHg 85%
    09:00 +13°C° 0 mm 1 mps 737 mmHg 81%
    10:00 +14°C° 0 mm 1 mps 737 mmHg 77%
    11:00 +14°C° 0.1 mm 1 mps 736 mmHg 75%
    12:00 +15°C° 0.1 mm 1 mps 736 mmHg 73%
    13:00 +15°C° 0.1 mm 1 mps 736 mmHg 72%
    14:00 +14°C° 0 mm 1 mps 736 mmHg 76%
    15:00 +13°C° 0 mm 1 mps 736 mmHg 80%
    16:00 +13°C° 0 mm 1 mps 735 mmHg 85%
    17:00 +12°C° 0 mm 1 mps 736 mmHg 86%
    18:00 +11°C° 0 mm 1 mps 736 mmHg 88%
    19:00 +10°C° 0 mm 0 mps 736 mmHg 90%
    20:00 +11°C° 0 mm 1 mps 736 mmHg 90%
    21:00 +10°C° 0 mm 1 mps 736 mmHg 90%
    22:00 +10°C° 0 mm 1 mps 736 mmHg 90%
    23:00 +10°C° 0 mm 1 mps 735 mmHg 89%

    9 December, Monday

    Time Temperature Precipitation Wind Pressure Humidity
    00:00 +10°C° 0 mm 1 mps 735 mmHg 88%
    01:00 +9°C° 0 mm 1 mps 735 mmHg 87%
    02:00 +9°C° 0 mm 1 mps 735 mmHg 87%
    03:00 +9°C° 0 mm 1 mps 734 mmHg 86%
    04:00 +9°C° 0 mm 1 mps 734 mmHg 85%
    05:00 +9°C° 0 mm 1 mps 734 mmHg 85%
    06:00 +9°C° 0 mm 1 mps 734 mmHg 85%
    07:00 +9°C° 0 mm 1 mps 734 mmHg 85%
    08:00 +10°C° 0 mm 1 mps 734 mmHg 81%
    09:00 +12°C° 0 mm 1 mps 734 mmHg 76%
    10:00 +13°C° 0 mm 2 mps 733 mmHg 72%
    11:00 +13°C° 0.1 mm 2 mps 733 mmHg 73%
    12:00 +13°C° 0.1 mm 2 mps 732 mmHg 74%
    13:00 +14°C° 0.1 mm 2 mps 731 mmHg 75%
    14:00 +13°C° 0.1 mm 2 mps 731 mmHg 77%
    15:00 +13°C° 0.1 mm 2 mps 730 mmHg 80%
    16:00 +12°C° 0.1 mm 2 mps 730 mmHg 83%
    17:00 +12°C° 0 mm 2 mps 730 mmHg 83%
    18:00 +12°C° 0 mm 2 mps 729 mmHg 82%
    19:00 +12°C° 0 mm 2 mps 729 mmHg 82%
    20:00 +10°C° 0.1 mm 2 mps 729 mmHg 84%
    21:00 +10°C° 0.1 mm 3 mps 729 mmHg 86%
    22:00 +10°C° 0.1 mm 3 mps 729 mmHg 88%
    23:00 +10°C° 0.7 mm 3 mps 728 mmHg 89%

    10 December, Tuesday

    Time Temperature Precipitation Wind Pressure Humidity
    00:00 +10°C° 0.7 mm 3 mps 728 mmHg 90%
    01:00 +10°C° 0.7 mm 4 mps 728 mmHg 91%
    02:00 +9°C° 0.8 mm 3 mps 728 mmHg 91%
    03:00 +9°C° 0.8 mm 3 mps 728 mmHg 90%
    04:00 +9°C° 0.8 mm 3 mps 728 mmHg 90%
    05:00 +9°C° 0.5 mm 3 mps 728 mmHg 89%
    06:00 +9°C° 0.5 mm 2 mps 728 mmHg 89%
    07:00 +8°C° 0.5 mm 2 mps 728 mmHg 89%
    08:00 +9°C° 0.6 mm 2 mps 728 mmHg 86%
    09:00 +10°C° 0.6 mm 2 mps 728 mmHg 84%
    10:00 +10°C° 0.6 mm 3 mps 729 mmHg 81%
    11:00 +10°C° 1 mm 2 mps 728 mmHg 80%
    12:00 +12°C° 1 mm 2 mps 728 mmHg 79%
    13:00 +12°C° 1 mm 1 mps 728 mmHg 78%
    14:00 +11°C° 0.4 mm 1 mps 728 mmHg 80%
    15:00 +11°C° 0.4 mm 1 mps 729 mmHg 81%
    16:00 +10°C° 0.4 mm 1 mps 729 mmHg 83%
    17:00 +10°C° 0 mm 1 mps 729 mmHg 83%
    18:00 +9°C° 0 mm 1 mps 730 mmHg 83%
    19:00 +8°C° 0 mm 2 mps 730 mmHg 83%
    20:00 +8°C° 0 mm 2 mps 731 mmHg 83%
    21:00 +7°C° 0 mm 2 mps 731 mmHg 82%
    22:00 +7°C° 0 mm 2 mps 732 mmHg 82%
    23:00 +7°C° 0 mm 2 mps 732 mmHg 81%

    11 December, Wednesday

    Time Temperature Precipitation Wind Pressure Humidity
    00:00 +7°C° 0 mm 2 mps 732 mmHg 81%
    01:00 +6°C° 0 mm 2 mps 732 mmHg 80%
    02:00 +6°C° 0 mm 2 mps 733 mmHg 80%
    03:00 +5°C° 0 mm 3 mps 733 mmHg 79%
    04:00 +5°C° 0 mm 3 mps 733 mmHg 79%
    05:00 +4°C° 0 mm 3 mps 734 mmHg 79%
    06:00 +4°C° 0 mm 3 mps 735 mmHg 79%
    07:00 +4°C° 0 mm 3 mps 735 mmHg 79%
    08:00 +5°C° 0 mm 3 mps 735 mmHg 74%
    09:00 +8°C° 0 mm 3 mps 736 mmHg 68%
    10:00 +9°C° 0 mm 3 mps 736 mmHg 63%
    11:00 +10°C° 0 mm 2 mps 736 mmHg 60%
    12:00 +10°C° 0 mm 2 mps 736 mmHg 56%
    13:00 +12°C° 0 mm 2 mps 735 mmHg 53%
    14:00 +10°C° 0 mm 2 mps 735 mmHg 57%
    15:00 +9°C° 0 mm 2 mps 735 mmHg 61%
    16:00 +8°C° 0 mm 2 mps 735 mmHg 65%
    17:00 +7°C° 0 mm 2 mps 736 mmHg 66%
    18:00 +6°C° 0 mm 2 mps 736 mmHg 68%
    19:00 +6°C° 0 mm 2 mps 736 mmHg 69%
    20:00 +5°C° 0 mm 2 mps 736 mmHg 70%
    21:00 +5°C° 0 mm 2 mps 736 mmHg 70%
    22:00 +5°C° 0 mm 2 mps 736 mmHg 70%
    23:00 +5°C° 0 mm 2 mps 736 mmHg 70%
    Show more